Volver al catálogo

THORAD AGENA D DEB

ActivoLEO
NORAD 4734·DEBRIS·🇺🇸 United States

Lanzado Apr 8, 1970 desde Vandenberg Space Force Base

Loading…

Próximos Pases (próximas 24 horas)

TLE

ActualizadoSource: Space-Track

Época: Sep 14, 2026, 05:09 UTC

1 04734U 70025CH  26257.21485937  .00000123  00000-0  14542-3 0  9998
2 04734 100.1015 349.1751 0082963 129.2770 231.5780 13.86490948834906

Sigue THORAD AGENA D DEB en tiempo real con AllMySat

Download on the App Store